Tracking 28908 objects as of 21-May-2024
HD Live streaming from Space Station
objects crossing your sky now

STARLINK-6261

Track STARLINK-6261 now!
10-day predictions
STARLINK-6261 is classified as:


NORAD ID: 56417
Int'l Code: 2023-061AV
Perigee: 565.4 km
Apogee: 567.0 km
Inclination: 43.0 °
Period: 95.8 minutes
Semi major axis: 6937 km
RCS: Unknown
Launch date: May 4, 2023
Source: United States (US)
Launch site: AIR FORCE EASTERN TEST RANGE (AFETR)
Your satellite tracking list
Your tracking list is empty




NASA's NSSDC Master Catalog

Two Line Element Set (TLE):
1 56417U 23061AV  24141.40035997  .00005531  00000-0  42423-3 0  9996
2 56417  43.0006 161.1829 0001156 236.2507 123.8225 15.02533548 57881
Source of the keplerian elements: AFSPC